Time,TemperatureF,DewpointF,PressureIn,WindDirection,WindDirectionDegrees,WindSpeedMPH,WindSpeedGustMPH,Humidity,HourlyPrecipIn,Conditions,Clouds,dailyrainin,SoftwareType,DateUTC
2013-04-02 00:01:00,24.4,15.0,30.56,ENE,59,7.0,9.0,67,0.00,,,0.00,LWC V2.10 B1813,2013-04-02 08:01:00,
2013-04-02 00:06:00,24.4,14.7,30.56,NNW,328,1.0,3.0,66,0.00,,,0.00,LWC V2.10 B1813,2013-04-02 08:06:00,
2013-04-02 00:11:00,24.2,14.5,30.56,North,5,4.0,7.0,66,0.00,,,0.00,LWC V2.10 B1813,2013-04-02 08:11:00,
2013-04-02 00:16:00,23.9,14.2,30.56,NNW,341,2.0,8.0,66,0.00,,,0.00,LWC V2.10 B1813,2013-04-02 08:16:00,
2013-04-02 00:21:00,23.6,14.3,30.56,North,11,2.0,5.0,67,0.00,,,0.00,LWC V2.10 B1813,2013-04-02 08:21:00,
2013-04-02 00:26:00,23.4,14.4,30.56,NW,322,1.0,2.0,68,0.00,,,0.00,LWC V2.10 B1813,2013-04-02 08:26:00,
2013-04-02 00:31:00,23.0,14.4,30.56,NNW,340,0.0,4.0,69,0.00,,,0.00,LWC V2.10 B1813,2013-04-02 08:31:00,
2013-04-02 00:36:00,22.6,14.0,30.56,NNE,18,2.0,6.0,69,0.00,,,0.00,LWC V2.10 B1813,2013-04-02 08:36:00,
2013-04-02 00:41:00,22.4,13.8,30.56,NNW,337,1.0,3.0,69,0.00,,,0.00,LWC V2.10 B1813,2013-04-02 08:41:00,
2013-04-02 00:46:00,22.4,13.8,30.56,North,0,1.0,3.0,69,0.00,,,0.00,LWC V2.10 B1813,2013-04-02 08:46:00,
2013-04-02 00:51:00,22.5,13.9,30.56,NNE,20,3.0,4.0,69,0.00,,,0.00,LWC V2.10 B1813,2013-04-02 08:51:00,
2013-04-02 00:56:00,22.4,13.8,30.56,NW,326,2.0,4.0,69,0.00,,,0.00,LWC V2.10 B1813,2013-04-02 08:56:00,
2013-04-02 01:01:00,22.1,13.5,30.57,NW,325,2.0,3.0,69,0.00,,,0.00,LWC V2.10 B1813,2013-04-02 09:01:00,
2013-04-02 01:06:00,21.8,13.9,30.57,WNW,303,3.0,4.0,71,0.00,,,0.00,LWC V2.10 B1813,2013-04-02 09:06:00,
2013-04-02 01:11:00,21.6,13.7,30.57,WNW,302,2.0,4.0,71,0.00,,,0.00,LWC V2.10 B1813,2013-04-02 09:11:00,
2013-04-02 01:16:00,21.2,13.0,30.57,WNW,302,1.0,2.0,70,0.00,,,0.00,LWC V2.10 B1813,2013-04-02 09:16:00,
2013-04-02 01:21:00,20.9,13.3,30.57,WNW,302,0.0,3.0,72,0.00,,,0.00,LWC V2.10 B1813,2013-04-02 09:21:00,
2013-04-02 01:26:00,20.6,12.7,30.57,North,0,2.0,2.0,71,0.00,,,0.00,LWC V2.10 B1813,2013-04-02 09:26:00,
2013-04-02 01:31:00,20.4,12.8,30.57,NNE,19,1.0,5.0,72,0.00,,,0.00,LWC V2.10 B1813,2013-04-02 09:31:00,
2013-04-02 01:36:00,20.6,12.7,30.58,NNE,24,1.0,1.0,71,0.00,,,0.00,LWC V2.10 B1813,2013-04-02 09:36:00,
2013-04-02 01:41:00,20.6,12.7,30.58,NNW,339,0.0,1.0,71,0.00,,,0.00,LWC V2.10 B1813,2013-04-02 09:41:00,
2013-04-02 01:46:00,20.6,12.7,30.58,NNW,335,3.0,3.0,71,0.00,,,0.00,LWC V2.10 B1813,2013-04-02 09:46:00,
2013-04-02 01:51:00,20.6,12.7,30.58,NW,319,2.0,2.0,71,0.00,,,0.00,LWC V2.10 B1813,2013-04-02 09:51:00,
2013-04-02 01:56:00,20.4,12.2,30.58,North,0,0.0,0.0,70,0.00,,,0.00,LWC V2.10 B1813,2013-04-02 09:56:00,
2013-04-02 02:01:00,20.2,12.3,30.58,NW,319,0.0,1.0,71,0.00,,,0.00,LWC V2.10 B1813,2013-04-02 10:01:00,
2013-04-02 02:06:00,20.0,12.1,30.58,NW,319,0.0,0.0,71,0.00,,,0.00,LWC V2.10 B1813,2013-04-02 10:06:00,
2013-04-02 02:11:00,20.0,12.1,30.58,NW,319,1.0,2.0,71,0.00,,,0.00,LWC V2.10 B1813,2013-04-02 10:11:00,
2013-04-02 02:16:00,20.1,12.2,30.59,NW,311,0.0,2.0,71,0.00,,,0.00,LWC V2.10 B1813,2013-04-02 10:16:00,
2013-04-02 02:21:00,19.9,12.0,30.59,NW,312,0.0,0.0,71,0.00,,,0.00,LWC V2.10 B1813,2013-04-02 10:21:00,
2013-04-02 02:26:00,19.7,12.2,30.59,WNW,290,1.0,4.0,72,0.00,,,0.00,LWC V2.10 B1813,2013-04-02 10:26:00,
2013-04-02 02:31:00,19.7,12.2,30.59,West,268,1.0,2.0,72,0.00,,,0.00,LWC V2.10 B1813,2013-04-02 10:31:00,
2013-04-02 02:36:00,19.6,12.1,30.59,West,269,0.0,0.0,72,0.00,,,0.00,LWC V2.10 B1813,2013-04-02 10:36:00,
2013-04-02 02:41:00,19.4,11.9,30.59,SSE,148,0.0,4.0,72,0.00,,,0.00,LWC V2.10 B1813,2013-04-02 10:41:00,
2013-04-02 02:46:00,19.5,12.0,30.59,SSW,192,0.0,1.0,72,0.00,,,0.00,LWC V2.10 B1813,2013-04-02 10:46:00,
2013-04-02 02:51:00,19.3,12.1,30.59,SSW,211,1.0,3.0,73,0.00,,,0.00,LWC V2.10 B1813,2013-04-02 10:51:00,
2013-04-02 02:56:00,19.3,12.1,30.59,SW,236,0.0,2.0,73,0.00,,,0.00,LWC V2.10 B1813,2013-04-02 10:56:00,
2013-04-02 03:01:00,19.2,11.7,30.59,SW,236,0.0,1.0,72,0.00,,,0.00,LWC V2.10 B1813,2013-04-02 11:01:00,
2013-04-02 03:06:00,19.3,11.8,30.59,SW,227,0.0,1.0,72,0.00,,,0.00,LWC V2.10 B1813,2013-04-02 11:06:00,
2013-04-02 03:11:00,19.4,11.9,30.59,SW,227,0.0,2.0,72,0.00,,,0.00,LWC V2.10 B1813,2013-04-02 11:11:00,
2013-04-02 03:16:00,19.3,11.5,30.59,SSW,201,1.0,3.0,71,0.00,,,0.00,LWC V2.10 B1813,2013-04-02 11:16:00,
2013-04-02 03:21:00,19.1,11.6,30.59,SSW,205,1.0,3.0,72,0.00,,,0.00,LWC V2.10 B1813,2013-04-02 11:21:00,
2013-04-02 03:26:00,18.9,11.4,30.59,SSW,207,0.0,1.0,72,0.00,,,0.00,LWC V2.10 B1813,2013-04-02 11:26:00,
2013-04-02 03:31:00,19.0,11.5,30.59,SSW,203,0.0,1.0,72,0.00,,,0.00,LWC V2.10 B1813,2013-04-02 11:31:00,
2013-04-02 03:36:00,19.1,11.9,30.59,SSW,200,0.0,1.0,73,0.00,,,0.00,LWC V2.10 B1813,2013-04-02 11:36:00,
2013-04-02 03:41:00,19.1,11.6,30.59,SSW,200,2.0,3.0,72,0.00,,,0.00,LWC V2.10 B1813,2013-04-02 11:41:00,
2013-04-02 03:46:00,18.9,11.4,30.59,SSW,197,2.0,4.0,72,0.00,,,0.00,LWC V2.10 B1813,2013-04-02 11:46:00,
2013-04-02 03:51:00,18.7,11.5,30.59,SSW,197,0.0,1.0,73,0.00,,,0.00,LWC V2.10 B1813,2013-04-02 11:51:00,
2013-04-02 03:56:00,18.4,11.2,30.59,SSW,197,0.0,1.0,73,0.00,,,0.00,LWC V2.10 B1813,2013-04-02 11:56:00,
2013-04-02 04:01:00,18.3,11.4,30.59,SSW,196,0.0,1.0,74,0.00,,,0.00,LWC V2.10 B1813,2013-04-02 12:01:00,
2013-04-02 04:06:00,18.2,11.0,30.59,SSW,197,0.0,0.0,73,0.00,,,0.00,LWC V2.10 B1813,2013-04-02 12:06:00,
2013-04-02 04:11:00,17.9,11.0,30.59,SW,228,0.0,2.0,74,0.00,,,0.00,LWC V2.10 B1813,2013-04-02 12:11:00,
2013-04-02 04:16:00,17.8,10.9,30.60,NW,306,0.0,2.0,74,0.00,,,0.00,LWC V2.10 B1813,2013-04-02 12:16:00,
2013-04-02 04:21:00,17.8,10.9,30.60,NW,306,0.0,0.0,74,0.00,,,0.00,LWC V2.10 B1813,2013-04-02 12:21:00,
2013-04-02 04:26:00,17.6,10.8,30.60,NE,44,3.0,3.0,74,0.00,,,0.00,LWC V2.10 B1813,2013-04-02 12:26:00,
2013-04-02 04:31:00,17.9,11.0,30.60,East,81,0.0,3.0,74,0.00,,,0.00,LWC V2.10 B1813,2013-04-02 12:31:00,
2013-04-02 04:36:00,18.1,11.2,30.59,East,81,0.0,2.0,74,0.00,,,0.00,LWC V2.10 B1813,2013-04-02 12:36:00,
2013-04-02 04:41:00,18.1,10.9,30.59,NE,49,0.0,4.0,73,0.00,,,0.00,LWC V2.10 B1813,2013-04-02 12:41:00,
2013-04-02 04:46:00,18.1,10.9,30.60,NE,51,1.0,1.0,73,0.00,,,0.00,LWC V2.10 B1813,2013-04-02 12:46:00,
2013-04-02 04:51:00,18.1,10.9,30.60,WNW,284,1.0,3.0,73,0.00,,,0.00,LWC V2.10 B1813,2013-04-02 12:51:00,
2013-04-02 04:56:00,18.2,11.3,30.60,WNW,284,0.0,1.0,74,0.00,,,0.00,LWC V2.10 B1813,2013-04-02 12:56:00,
2013-04-02 05:01:00,18.2,11.0,30.60,WNW,283,0.0,2.0,73,0.00,,,0.00,LWC V2.10 B1813,2013-04-02 13:01:00,
2013-04-02 05:06:00,18.2,11.3,30.60,West,275,1.0,2.0,74,0.00,,,0.00,LWC V2.10 B1813,2013-04-02 13:06:00,
2013-04-02 05:11:00,18.3,11.4,30.60,West,276,0.0,2.0,74,0.00,,,0.00,LWC V2.10 B1813,2013-04-02 13:11:00,
2013-04-02 05:16:00,18.2,11.0,30.60,West,276,1.0,2.0,73,0.00,,,0.00,LWC V2.10 B1813,2013-04-02 13:16:00,
2013-04-02 05:21:00,18.0,11.1,30.60,West,276,0.0,1.0,74,0.00,,,0.00,LWC V2.10 B1813,2013-04-02 13:21:00,
2013-04-02 05:26:00,17.7,10.8,30.60,West,275,1.0,2.0,74,0.00,,,0.00,LWC V2.10 B1813,2013-04-02 13:26:00,
2013-04-02 05:31:00,17.4,10.6,30.60,West,276,0.0,2.0,74,0.00,,,0.00,LWC V2.10 B1813,2013-04-02 13:31:00,
2013-04-02 05:36:00,17.1,10.6,30.60,North,0,0.0,0.0,75,0.00,,,0.00,LWC V2.10 B1813,2013-04-02 13:36:00,
2013-04-02 05:41:00,16.9,10.4,30.60,North,0,0.0,0.0,75,0.00,,,0.00,LWC V2.10 B1813,2013-04-02 13:41:00,
2013-04-02 05:46:00,16.8,10.6,30.60,West,275,1.0,1.0,76,0.00,,,0.00,LWC V2.10 B1813,2013-04-02 13:46:00,
2013-04-02 05:51:00,16.8,10.6,30.61,SSE,156,2.0,3.0,76,0.00,,,0.00,LWC V2.10 B1813,2013-04-02 13:51:00,
2013-04-02 05:56:00,16.9,10.7,30.60,SSE,155,2.0,3.0,76,0.00,,,0.00,LWC V2.10 B1813,2013-04-02 13:56:00,
2013-04-02 06:01:00,16.7,10.5,30.60,SSE,156,0.0,2.0,76,0.00,,,0.00,LWC V2.10 B1813,2013-04-02 14:01:00,
2013-04-02 06:06:00,16.6,10.4,30.60,SSE,155,0.0,0.0,76,0.00,,,0.00,LWC V2.10 B1813,2013-04-02 14:06:00,
2013-04-02 06:11:00,16.4,10.5,30.60,SW,228,0.0,2.0,77,0.00,,,0.00,LWC V2.10 B1813,2013-04-02 14:11:00,
2013-04-02 06:16:00,16.2,10.3,30.61,SW,229,0.0,1.0,77,0.00,,,0.00,LWC V2.10 B1813,2013-04-02 14:16:00,
2013-04-02 06:21:00,16.1,10.2,30.61,SW,229,0.0,0.0,77,0.00,,,0.00,LWC V2.10 B1813,2013-04-02 14:21:00,
2013-04-02 06:26:00,16.0,10.4,30.61,SW,227,0.0,0.0,78,0.00,,,0.00,LWC V2.10 B1813,2013-04-02 14:26:00,
2013-04-02 06:31:00,16.0,10.4,30.61,SW,228,1.0,2.0,78,0.00,,,0.00,LWC V2.10 B1813,2013-04-02 14:31:00,
2013-04-02 06:36:00,16.0,10.1,30.61,SSW,194,2.0,2.0,77,0.00,,,0.00,LWC V2.10 B1813,2013-04-02 14:36:00,
2013-04-02 06:41:00,15.9,10.0,30.61,SSW,194,0.0,2.0,77,0.00,,,0.00,LWC V2.10 B1813,2013-04-02 14:41:00,
2013-04-02 06:46:00,15.9,10.3,30.61,SSW,194,0.0,0.0,78,0.00,,,0.00,LWC V2.10 B1813,2013-04-02 14:46:00,
2013-04-02 06:51:00,15.8,10.2,30.61,SSW,194,0.0,0.0,78,0.00,,,0.00,LWC V2.10 B1813,2013-04-02 14:51:00,
2013-04-02 06:56:00,15.8,10.2,30.61,SSW,193,0.0,2.0,78,0.00,,,0.00,LWC V2.10 B1813,2013-04-02 14:56:00,
2013-04-02 07:01:00,16.0,10.4,30.61,SSW,192,1.0,1.0,78,0.00,,,0.00,LWC V2.10 B1813,2013-04-02 15:01:00,
2013-04-02 07:06:00,16.0,10.4,30.61,SSW,192,0.0,1.0,78,0.00,,,0.00,LWC V2.10 B1813,2013-04-02 15:06:00,
2013-04-02 07:11:00,16.0,10.4,30.61,SSW,192,0.0,1.0,78,0.00,,,0.00,LWC V2.10 B1813,2013-04-02 15:11:00,
2013-04-02 07:16:00,16.0,10.4,30.61,South,191,0.0,1.0,78,0.00,,,0.00,LWC V2.10 B1813,2013-04-02 15:16:00,
2013-04-02 07:21:00,15.9,10.3,30.61,SSW,192,0.0,0.0,78,0.00,,,0.00,LWC V2.10 B1813,2013-04-02 15:21:00,
2013-04-02 07:26:00,15.9,10.3,30.61,South,191,0.0,2.0,78,0.00,,,0.00,LWC V2.10 B1813,2013-04-02 15:26:00,
2013-04-02 07:31:00,15.9,10.3,30.61,South,191,0.0,0.0,78,0.00,,,0.00,LWC V2.10 B1813,2013-04-02 15:31:00,
2013-04-02 07:36:00,16.1,10.5,30.61,South,190,0.0,0.0,78,0.00,,,0.00,LWC V2.10 B1813,2013-04-02 15:36:00,
2013-04-02 07:41:00,16.3,10.7,30.61,South,191,0.0,0.0,78,0.00,,,0.00,LWC V2.10 B1813,2013-04-02 15:41:00,
2013-04-02 07:46:00,16.4,10.5,30.61,SSW,192,0.0,1.0,77,0.00,,,0.00,LWC V2.10 B1813,2013-04-02 15:46:00,
2013-04-02 07:52:00,16.5,10.6,30.61,South,191,0.0,0.0,77,0.00,,,0.00,LWC V2.10 B1813,2013-04-02 15:52:00,
2013-04-02 07:57:00,16.6,11.0,30.61,South,191,0.0,0.0,78,0.00,,,0.00,LWC V2.10 B1813,2013-04-02 15:57:00,
2013-04-02 08:02:00,16.8,10.9,30.61,SSW,192,0.0,0.0,77,0.00,,,0.00,LWC V2.10 B1813,2013-04-02 16:02:00,
2013-04-02 08:07:00,17.2,11.3,30.61,South,190,0.0,0.0,77,0.00,,,0.00,LWC V2.10 B1813,2013-04-02 16:07:00,
2013-04-02 08:12:00,17.7,11.4,30.61,South,191,0.0,0.0,76,0.00,,,0.00,LWC V2.10 B1813,2013-04-02 16:12:00,
2013-04-02 08:17:00,18.5,11.9,30.61,South,191,0.0,0.0,75,0.00,,,0.00,LWC V2.10 B1813,2013-04-02 16:17:00,
2013-04-02 08:22:00,19.2,12.3,30.61,South,191,2.0,2.0,74,0.00,,,0.00,LWC V2.10 B1813,2013-04-02 16:22:00,
2013-04-02 08:27:00,19.7,11.8,30.61,South,191,0.0,1.0,71,0.00,,,0.00,LWC V2.10 B1813,2013-04-02 16:27:00,
2013-04-02 08:32:00,19.9,12.0,30.61,South,191,0.0,1.0,71,0.00,,,0.00,LWC V2.10 B1813,2013-04-02 16:32:00,
2013-04-02 08:37:00,20.1,11.9,30.61,South,191,0.0,1.0,70,0.00,,,0.00,LWC V2.10 B1813,2013-04-02 16:37:00,
2013-04-02 08:42:00,20.4,12.2,30.61,South,191,0.0,0.0,70,0.00,,,0.00,LWC V2.10 B1813,2013-04-02 16:42:00,
2013-04-02 08:47:00,21.4,12.8,30.62,South,190,0.0,0.0,69,0.00,,,0.00,LWC V2.10 B1813,2013-04-02 16:47:00,
2013-04-02 08:52:00,22.4,13.1,30.61,South,190,0.0,0.0,67,0.00,,,0.00,LWC V2.10 B1813,2013-04-02 16:52:00,
2013-04-02 08:57:00,22.2,12.6,30.61,South,191,1.0,1.0,66,0.00,,,0.00,LWC V2.10 B1813,2013-04-02 16:57:00,
2013-04-02 09:02:00,22.4,14.8,30.62,South,190,2.0,2.0,72,0.00,,,0.00,LWC V2.10 B1813,2013-04-02 17:02:00,
2013-04-02 09:06:00,22.5,12.5,30.62,South,191,0.0,2.0,65,0.00,,,0.00,LWC V2.10 B1813,2013-04-02 17:06:00,
2013-04-02 09:11:00,22.8,12.8,30.62,South,191,0.0,1.0,65,0.00,,,0.00,LWC V2.10 B1813,2013-04-02 17:11:00,
2013-04-02 09:16:00,23.4,13.4,30.61,South,191,0.0,0.0,65,0.00,,,0.00,LWC V2.10 B1813,2013-04-02 17:16:00,
2013-04-02 09:21:00,23.8,13.4,30.62,South,191,0.0,0.0,64,0.00,,,0.00,LWC V2.10 B1813,2013-04-02 17:21:00,
2013-04-02 09:26:00,24.2,13.4,30.62,South,190,0.0,0.0,63,0.00,,,0.00,LWC V2.10 B1813,2013-04-02 17:26:00,
2013-04-02 09:31:00,24.4,13.3,30.62,South,190,0.0,0.0,62,0.00,,,0.00,LWC V2.10 B1813,2013-04-02 17:31:00,
2013-04-02 09:36:00,24.7,13.9,30.62,South,191,0.0,0.0,63,0.00,,,0.00,LWC V2.10 B1813,2013-04-02 17:36:00,
2013-04-02 09:41:00,25.3,14.1,30.62,South,190,0.0,2.0,62,0.00,,,0.00,LWC V2.10 B1813,2013-04-02 17:41:00,
2013-04-02 09:46:00,25.7,14.1,30.62,SSW,193,2.0,2.0,61,0.00,,,0.00,LWC V2.10 B1813,2013-04-02 17:46:00,
2013-04-02 09:51:00,25.6,13.7,30.62,South,186,0.0,2.0,60,0.00,,,0.00,LWC V2.10 B1813,2013-04-02 17:51:00,
2013-04-02 09:56:00,25.4,13.9,30.62,South,186,0.0,0.0,61,0.00,,,0.00,LWC V2.10 B1813,2013-04-02 17:56:00,
2013-04-02 10:01:00,25.4,13.9,30.62,South,185,1.0,2.0,61,0.00,,,0.00,LWC V2.10 B1813,2013-04-02 18:01:00,
2013-04-02 10:06:00,25.3,13.8,30.62,South,182,1.0,2.0,61,0.00,,,0.00,LWC V2.10 B1813,2013-04-02 18:06:00,
2013-04-02 10:11:00,25.5,13.9,30.62,South,183,0.0,1.0,61,0.00,,,0.00,LWC V2.10 B1813,2013-04-02 18:11:00,
2013-04-02 10:16:00,25.7,14.5,30.62,South,183,0.0,0.0,62,0.00,,,0.00,LWC V2.10 B1813,2013-04-02 18:16:00,
2013-04-02 10:21:00,25.7,13.8,30.62,South,183,0.0,0.0,60,0.00,,,0.00,LWC V2.10 B1813,2013-04-02 18:21:00,
2013-04-02 10:26:00,25.6,14.0,30.62,South,183,0.0,0.0,61,0.00,,,0.00,LWC V2.10 B1813,2013-04-02 18:26:00,
2013-04-02 10:31:00,25.8,14.2,30.62,South,183,0.0,0.0,61,0.00,,,0.00,LWC V2.10 B1813,2013-04-02 18:31:00,
2013-04-02 10:36:00,26.1,14.1,30.62,South,183,0.0,0.0,60,0.00,,,0.00,LWC V2.10 B1813,2013-04-02 18:36:00,
2013-04-02 10:41:00,26.1,14.1,30.62,South,182,0.0,1.0,60,0.00,,,0.00,LWC V2.10 B1813,2013-04-02 18:41:00,
2013-04-02 10:46:00,26.2,14.2,30.62,South,184,1.0,3.0,60,0.00,,,0.00,LWC V2.10 B1813,2013-04-02 18:46:00,
2013-04-02 10:51:00,26.2,14.2,30.62,ESE,121,2.0,3.0,60,0.00,,,0.00,LWC V2.10 B1813,2013-04-02 18:51:00,
2013-04-02 10:56:00,26.0,14.8,30.62,SE,130,0.0,0.0,62,0.00,,,0.00,LWC V2.10 B1813,2013-04-02 18:56:00,
2013-04-02 11:01:00,26.3,14.7,30.62,SE,132,1.0,1.0,61,0.00,,,0.00,LWC V2.10 B1813,2013-04-02 19:01:00,
2013-04-02 11:06:00,27.0,15.4,30.62,SSE,151,1.0,2.0,61,0.00,,,0.00,LWC V2.10 B1813,2013-04-02 19:06:00,
2013-04-02 11:11:00,27.7,15.7,30.62,SSW,194,0.0,4.0,60,0.00,,,0.00,LWC V2.10 B1813,2013-04-02 19:11:00,
2013-04-02 11:16:00,28.5,16.0,30.62,SSW,196,2.0,2.0,59,0.00,,,0.00,LWC V2.10 B1813,2013-04-02 19:16:00,
2013-04-02 11:21:00,28.8,15.9,30.63,South,180,1.0,2.0,58,0.00,,,0.00,LWC V2.10 B1813,2013-04-02 19:21:00,
2013-04-02 11:26:00,28.9,16.0,30.63,South,179,1.0,2.0,58,0.00,,,0.00,LWC V2.10 B1813,2013-04-02 19:26:00,
2013-04-02 11:31:00,29.2,17.1,30.63,SSW,196,2.0,3.0,60,0.00,,,0.00,LWC V2.10 B1813,2013-04-02 19:31:00,
2013-04-02 11:36:00,29.8,16.0,30.63,SSW,198,0.0,2.0,56,0.00,,,0.00,LWC V2.10 B1813,2013-04-02 19:36:00,
2013-04-02 11:41:00,30.2,16.8,30.63,SSW,198,3.0,3.0,57,0.00,,,0.00,LWC V2.10 B1813,2013-04-02 19:41:00,
2013-04-02 11:47:00,30.3,16.9,30.63,SSW,193,3.0,3.0,57,0.00,,,0.00,LWC V2.10 B1813,2013-04-02 19:47:00,
2013-04-02 11:52:00,29.5,16.2,30.63,SSW,202,2.0,4.0,57,0.00,,,0.00,LWC V2.10 B1813,2013-04-02 19:52:00,
2013-04-02 11:57:00,29.6,17.1,30.63,SSW,200,0.0,1.0,59,0.00,,,0.00,LWC V2.10 B1813,2013-04-02 19:57:00,
2013-04-02 12:02:00,29.8,16.0,30.63,North,0,0.0,2.0,56,0.00,,,0.00,LWC V2.10 B1813,2013-04-02 20:02:00,
2013-04-02 12:07:00,29.9,15.7,30.63,SSW,199,0.0,2.0,55,0.00,,,0.00,LWC V2.10 B1813,2013-04-02 20:07:00,
2013-04-02 12:12:00,29.8,16.0,30.63,SSW,200,0.0,1.0,56,0.00,,,0.00,LWC V2.10 B1813,2013-04-02 20:12:00,
2013-04-02 12:17:00,29.9,15.7,30.63,South,176,0.0,2.0,55,0.00,,,0.00,LWC V2.10 B1813,2013-04-02 20:17:00,
2013-04-02 12:22:00,29.6,15.9,30.63,South,171,2.0,4.0,56,0.00,,,0.00,LWC V2.10 B1813,2013-04-02 20:22:00,
2013-04-02 12:27:00,29.4,15.7,30.63,SE,140,1.0,4.0,56,0.00,,,0.00,LWC V2.10 B1813,2013-04-02 20:27:00,
2013-04-02 12:32:00,29.2,16.7,30.63,SSE,159,3.0,3.0,59,0.00,,,0.00,LWC V2.10 B1813,2013-04-02 20:32:00,
2013-04-02 12:37:00,29.7,17.5,30.64,South,180,1.0,2.0,60,0.00,,,0.00,LWC V2.10 B1813,2013-04-02 20:37:00,
2013-04-02 12:42:00,30.4,16.6,30.64,South,180,0.0,2.0,56,0.00,,,0.00,LWC V2.10 B1813,2013-04-02 20:42:00,
2013-04-02 12:47:00,30.0,16.2,30.64,ESE,115,3.0,4.0,56,0.00,,,0.00,LWC V2.10 B1813,2013-04-02 20:47:00,
2013-04-02 12:52:00,29.7,15.9,30.64,SE,138,1.0,2.0,56,0.00,,,0.00,LWC V2.10 B1813,2013-04-02 20:52:00,
2013-04-02 12:57:00,29.6,15.9,30.64,SE,134,0.0,3.0,56,0.00,,,0.00,LWC V2.10 B1813,2013-04-02 20:57:00,
2013-04-02 13:02:00,29.9,16.1,30.64,SSE,159,3.0,3.0,56,0.00,,,0.00,LWC V2.10 B1813,2013-04-02 21:02:00,
2013-04-02 13:07:00,30.3,16.9,30.64,SSE,159,1.0,1.0,57,0.00,,,0.00,LWC V2.10 B1813,2013-04-02 21:07:00,
2013-04-02 13:12:00,30.7,16.5,30.64,SSE,164,0.0,3.0,55,0.00,,,0.00,LWC V2.10 B1813,2013-04-02 21:12:00,
2013-04-02 13:17:00,31.2,16.1,30.64,SSW,205,0.0,2.0,53,0.00,,,0.00,LWC V2.10 B1813,2013-04-02 21:17:00,
2013-04-02 13:22:00,31.2,16.5,30.64,SE,134,1.0,1.0,54,0.00,,,0.00,LWC V2.10 B1813,2013-04-02 21:22:00,
2013-04-02 13:27:00,31.4,16.7,30.64,SE,134,1.0,1.0,54,0.00,,,0.00,LWC V2.10 B1813,2013-04-02 21:27:00,
2013-04-02 13:32:00,31.3,17.9,30.63,SSW,200,1.0,4.0,57,0.00,,,0.00,LWC V2.10 B1813,2013-04-02 21:32:00,
2013-04-02 13:37:00,31.8,17.5,30.63,SSW,213,2.0,5.0,55,0.00,,,0.00,LWC V2.10 B1813,2013-04-02 21:37:00,
2013-04-02 13:42:00,32.0,17.3,30.63,SSW,200,1.0,6.0,54,0.00,,,0.00,LWC V2.10 B1813,2013-04-02 21:42:00,
2013-04-02 13:47:00,32.0,17.7,30.64,SW,219,2.0,7.0,55,0.00,,,0.00,LWC V2.10 B1813,2013-04-02 21:47:00,
2013-04-02 13:52:00,31.9,17.2,30.64,SSW,202,0.0,1.0,54,0.00,,,0.00,LWC V2.10 B1813,2013-04-02 21:52:00,
2013-04-02 13:57:00,32.0,16.4,30.64,North,0,1.0,3.0,52,0.00,,,0.00,LWC V2.10 B1813,2013-04-02 21:57:00,
2013-04-02 14:02:00,32.3,18.8,30.64,NW,309,3.0,5.0,57,0.00,,,0.00,LWC V2.10 B1813,2013-04-02 22:02:00,
2013-04-02 14:07:00,32.5,17.3,30.64,NW,313,4.0,7.0,53,0.00,,,0.00,LWC V2.10 B1813,2013-04-02 22:07:00,
2013-04-02 14:12:00,32.9,18.9,30.64,North,0,3.0,4.0,56,0.00,,,0.00,LWC V2.10 B1813,2013-04-02 22:12:00,
2013-04-02 14:17:00,33.2,17.9,30.64,NW,304,0.0,2.0,53,0.00,,,0.00,LWC V2.10 B1813,2013-04-02 22:17:00,
2013-04-02 14:22:00,32.8,17.1,30.64,NW,305,0.0,1.0,52,0.00,,,0.00,LWC V2.10 B1813,2013-04-02 22:22:00,
2013-04-02 14:27:00,32.1,16.9,30.64,SSW,212,0.0,1.0,53,0.00,,,0.00,LWC V2.10 B1813,2013-04-02 22:27:00,
2013-04-02 14:32:00,31.8,16.2,30.64,WNW,292,1.0,5.0,52,0.00,,,0.00,LWC V2.10 B1813,2013-04-02 22:32:00,
2013-04-02 14:37:00,31.8,17.5,30.64,WNW,292,0.0,4.0,55,0.00,,,0.00,LWC V2.10 B1813,2013-04-02 22:37:00,
2013-04-02 14:42:00,32.1,17.8,30.64,NW,311,4.0,8.0,55,0.00,,,0.00,LWC V2.10 B1813,2013-04-02 22:42:00,
2013-04-02 14:47:00,32.3,17.1,30.64,North,0,2.0,5.0,53,0.00,,,0.00,LWC V2.10 B1813,2013-04-02 22:47:00,
2013-04-02 14:52:00,32.5,16.9,30.64,NNW,327,1.0,6.0,52,0.00,,,0.00,LWC V2.10 B1813,2013-04-02 22:52:00,
2013-04-02 14:57:00,32.8,19.3,30.64,North,0,0.0,5.0,57,0.00,,,0.00,LWC V2.10 B1813,2013-04-02 22:57:00,
2013-04-02 15:02:00,33.1,19.1,30.64,NW,322,2.0,5.0,56,0.00,,,0.00,LWC V2.10 B1813,2013-04-02 23:02:00,
2013-04-02 15:07:00,33.6,19.6,30.63,NW,314,3.0,6.0,56,0.00,,,0.00,LWC V2.10 B1813,2013-04-02 23:07:00,
2013-04-02 15:12:00,33.6,17.0,30.64,NNE,15,1.0,2.0,50,0.00,,,0.00,LWC V2.10 B1813,2013-04-02 23:12:00,
2013-04-02 15:17:00,33.3,17.6,30.64,East,101,0.0,2.0,52,0.00,,,0.00,LWC V2.10 B1813,2013-04-02 23:17:00,
2013-04-02 15:22:00,33.0,16.9,30.64,SSW,198,0.0,2.0,51,0.00,,,0.00,LWC V2.10 B1813,2013-04-02 23:22:00,
2013-04-02 15:27:00,32.9,17.2,30.63,West,272,3.0,4.0,52,0.00,,,0.00,LWC V2.10 B1813,2013-04-02 23:27:00,
2013-04-02 15:32:00,33.1,19.1,30.64,WNW,298,0.0,3.0,56,0.00,,,0.00,LWC V2.10 B1813,2013-04-02 23:32:00,
2013-04-02 15:37:00,33.1,17.9,30.63,WNW,297,0.0,3.0,53,0.00,,,0.00,LWC V2.10 B1813,2013-04-02 23:37:00,
2013-04-02 15:42:00,33.2,16.6,30.63,ENE,71,2.0,4.0,50,0.00,,,0.00,LWC V2.10 B1813,2013-04-02 23:42:00,
2013-04-02 15:47:00,32.4,16.3,30.63,ESE,102,0.0,3.0,51,0.00,,,0.00,LWC V2.10 B1813,2013-04-02 23:47:00,
2013-04-02 15:52:00,32.1,17.4,30.63,South,179,1.0,3.0,54,0.00,,,0.00,LWC V2.10 B1813,2013-04-02 23:52:00,
2013-04-02 15:57:00,31.9,16.7,30.63,ENE,60,0.0,5.0,53,0.00,,,0.00,LWC V2.10 B1813,2013-04-02 23:57:00,
2013-04-02 16:02:00,31.7,16.5,30.63,ENE,72,0.0,2.0,53,0.00,,,0.00,LWC V2.10 B1813,2013-04-03 00:02:00,
2013-04-02 16:07:00,32.1,18.2,30.63,North,0,2.0,3.0,56,0.00,,,0.00,LWC V2.10 B1813,2013-04-03 00:07:00,
2013-04-02 16:12:00,32.3,16.7,30.63,ESE,103,4.0,5.0,52,0.00,,,0.00,LWC V2.10 B1813,2013-04-03 00:12:00,
2013-04-02 16:17:00,32.2,17.9,30.63,North,9,1.0,3.0,55,0.00,,,0.00,LWC V2.10 B1813,2013-04-03 00:17:00,
2013-04-02 16:22:00,32.5,16.9,30.63,SE,140,3.0,6.0,52,0.00,,,0.00,LWC V2.10 B1813,2013-04-03 00:22:00,
2013-04-02 16:27:00,32.3,16.7,30.63,SE,146,0.0,3.0,52,0.00,,,0.00,LWC V2.10 B1813,2013-04-03 00:27:00,
2013-04-02 16:32:00,32.2,16.1,30.63,SE,146,0.0,0.0,51,0.00,,,0.00,LWC V2.10 B1813,2013-04-03 00:32:00,
2013-04-02 16:37:00,32.4,16.8,30.63,SE,136,1.0,3.0,52,0.00,,,0.00,LWC V2.10 B1813,2013-04-03 00:37:00,
2013-04-02 16:42:00,32.5,16.9,30.63,SSW,209,0.0,1.0,52,0.00,,,0.00,LWC V2.10 B1813,2013-04-03 00:42:00,
2013-04-02 16:47:00,32.4,16.3,30.63,SSE,150,0.0,2.0,51,0.00,,,0.00,LWC V2.10 B1813,2013-04-03 00:47:00,
2013-04-02 16:52:00,32.1,16.0,30.63,ENE,72,4.0,5.0,51,0.00,,,0.00,LWC V2.10 B1813,2013-04-03 00:52:00,
2013-04-02 16:57:00,31.5,17.6,30.63,NE,43,0.0,6.0,56,0.00,,,0.00,LWC V2.10 B1813,2013-04-03 00:57:00,
2013-04-02 17:02:00,31.5,15.5,30.63,NNW,331,5.0,6.0,51,0.00,,,0.00,LWC V2.10 B1813,2013-04-03 01:02:00,
2013-04-02 17:07:00,31.4,16.3,30.63,ENE,57,1.0,3.0,53,0.00,,,0.00,LWC V2.10 B1813,2013-04-03 01:07:00,
2013-04-02 17:12:00,31.5,15.5,30.63,North,0,4.0,6.0,51,0.00,,,0.00,LWC V2.10 B1813,2013-04-03 01:12:00,
2013-04-02 17:17:00,31.5,16.4,30.63,NNW,333,0.0,8.0,53,0.00,,,0.00,LWC V2.10 B1813,2013-04-03 01:17:00,
2013-04-02 17:22:00,31.5,16.4,30.63,NW,323,3.0,9.0,53,0.00,,,0.00,LWC V2.10 B1813,2013-04-03 01:22:00,
2013-04-02 17:27:00,31.6,16.9,30.63,North,0,8.0,11.0,54,0.00,,,0.00,LWC V2.10 B1813,2013-04-03 01:27:00,
2013-04-02 17:32:00,31.5,16.4,30.63,North,350,8.0,8.0,53,0.00,,,0.00,LWC V2.10 B1813,2013-04-03 01:32:00,
2013-04-02 17:37:00,31.5,18.0,30.63,NW,313,1.0,8.0,57,0.00,,,0.00,LWC V2.10 B1813,2013-04-03 01:37:00,
2013-04-02 17:42:00,31.4,17.5,30.63,NW,314,8.0,10.0,56,0.00,,,0.00,LWC V2.10 B1813,2013-04-03 01:42:00,
2013-04-02 17:47:00,31.4,17.5,30.63,NW,307,5.0,10.0,56,0.00,,,0.00,LWC V2.10 B1813,2013-04-03 01:47:00,
2013-04-02 17:52:00,31.3,18.3,30.63,NW,310,1.0,8.0,58,0.00,,,0.00,LWC V2.10 B1813,2013-04-03 01:52:00,
2013-04-02 17:57:00,31.2,18.2,30.63,NW,311,7.0,9.0,58,0.00,,,0.00,LWC V2.10 B1813,2013-04-03 01:57:00,
2013-04-02 18:02:00,31.0,18.0,30.63,NNW,335,8.0,13.0,58,0.00,,,0.00,LWC V2.10 B1813,2013-04-03 02:02:00,
2013-04-02 18:07:00,30.8,17.8,30.63,North,0,3.0,11.0,58,0.00,,,0.00,LWC V2.10 B1813,2013-04-03 02:07:00,
2013-04-02 18:12:00,30.6,18.0,30.63,NNW,342,4.0,6.0,59,0.00,,,0.00,LWC V2.10 B1813,2013-04-03 02:12:00,
2013-04-02 18:17:00,30.6,18.0,30.63,North,0,5.0,10.0,59,0.00,,,0.00,LWC V2.10 B1813,2013-04-03 02:17:00,
2013-04-02 18:22:00,30.4,17.0,30.63,NW,307,6.0,12.0,57,0.00,,,0.00,LWC V2.10 B1813,2013-04-03 02:22:00,
2013-04-02 18:27:00,30.2,17.2,30.63,WNW,288,5.0,13.0,58,0.00,,,0.00,LWC V2.10 B1813,2013-04-03 02:27:00,
2013-04-02 18:32:00,30.0,17.8,30.63,NW,318,3.0,10.0,60,0.00,,,0.00,LWC V2.10 B1813,2013-04-03 02:32:00,
2013-04-02 18:37:00,29.8,17.2,30.63,NW,313,6.0,12.0,59,0.00,,,0.00,LWC V2.10 B1813,2013-04-03 02:37:00,
2013-04-02 18:42:00,29.5,17.0,30.63,NW,311,4.0,13.0,59,0.00,,,0.00,LWC V2.10 B1813,2013-04-03 02:42:00,
2013-04-02 18:47:00,29.2,17.1,30.63,NNW,337,8.0,12.0,60,0.00,,,0.00,LWC V2.10 B1813,2013-04-03 02:47:00,
2013-04-02 18:52:00,28.9,16.4,30.63,NW,325,4.0,17.0,59,0.00,,,0.00,LWC V2.10 B1813,2013-04-03 02:52:00,
2013-04-02 18:57:00,28.8,17.8,30.63,NNW,346,3.0,8.0,63,0.00,,,0.00,LWC V2.10 B1813,2013-04-03 02:57:00,
2013-04-02 19:02:00,28.5,16.8,30.63,North,0,8.0,8.0,61,0.00,,,0.00,LWC V2.10 B1813,2013-04-03 03:02:00,
2013-04-02 19:07:00,28.4,17.4,30.63,North,0,7.0,14.0,63,0.00,,,0.00,LWC V2.10 B1813,2013-04-03 03:07:00,
2013-04-02 19:12:00,28.2,16.9,30.63,NW,314,4.0,12.0,62,0.00,,,0.00,LWC V2.10 B1813,2013-04-03 03:12:00,
2013-04-02 19:17:00,28.0,16.3,30.63,NNW,338,6.0,14.0,61,0.00,,,0.00,LWC V2.10 B1813,2013-04-03 03:17:00,
2013-04-02 19:22:00,27.8,16.1,30.63,NNW,346,3.0,14.0,61,0.00,,,0.00,LWC V2.10 B1813,2013-04-03 03:22:00,
2013-04-02 19:27:00,27.7,16.4,30.63,NW,318,3.0,13.0,62,0.00,,,0.00,LWC V2.10 B1813,2013-04-03 03:27:00,
2013-04-02 19:32:00,27.6,16.7,30.63,NNW,333,7.0,9.0,63,0.00,,,0.00,LWC V2.10 B1813,2013-04-03 03:32:00,
2013-04-02 19:37:00,27.5,16.6,30.63,North,355,4.0,14.0,63,0.00,,,0.00,LWC V2.10 B1813,2013-04-03 03:37:00,
2013-04-02 19:42:00,27.4,15.7,30.63,NNW,330,5.0,14.0,61,0.00,,,0.00,LWC V2.10 B1813,2013-04-03 03:42:00,
2013-04-02 19:47:00,27.2,15.9,30.63,NW,313,3.0,11.0,62,0.00,,,0.00,LWC V2.10 B1813,2013-04-03 03:47:00,
2013-04-02 19:52:00,27.1,16.6,30.63,North,11,13.0,14.0,64,0.00,,,0.00,LWC V2.10 B1813,2013-04-03 03:52:00,
2013-04-02 19:57:00,27.0,15.7,30.63,WNW,293,7.0,11.0,62,0.00,,,0.00,LWC V2.10 B1813,2013-04-03 03:57:00,
2013-04-02 20:00:00,26.9,15.3,30.64,NNE,22,4.0,10.0,61,0.00,,,0.00,LWC V2.10 B1813,2013-04-03 04:00:00,
2013-04-02 20:01:00,26.8,15.9,30.64,North,355,2.0,12.0,63,0.00,,,0.00,LWC V2.10 B1813,2013-04-03 04:01:00,
2013-04-02 20:06:00,26.7,15.1,30.64,North,349,6.0,12.0,61,0.00,,,0.00,LWC V2.10 B1813,2013-04-03 04:06:00,
2013-04-02 20:11:00,26.6,15.4,30.64,NNW,340,1.0,7.0,62,0.00,,,0.00,LWC V2.10 B1813,2013-04-03 04:11:00,
2013-04-02 20:16:00,26.5,14.5,30.64,North,0,7.0,11.0,60,0.00,,,0.00,LWC V2.10 B1813,2013-04-03 04:16:00,
2013-04-02 20:21:00,26.3,13.9,30.64,North,355,6.0,15.0,59,0.00,,,0.00,LWC V2.10 B1813,2013-04-03 04:21:00,
2013-04-02 20:26:00,26.2,14.2,30.64,North,0,5.0,13.0,60,0.00,,,0.00,LWC V2.10 B1813,2013-04-03 04:26:00,
2013-04-02 20:31:00,26.0,13.7,30.64,NW,313,5.0,13.0,59,0.00,,,0.00,LWC V2.10 B1813,2013-04-03 04:31:00,
2013-04-02 20:36:00,25.8,13.5,30.64,North,0,8.0,13.0,59,0.00,,,0.00,LWC V2.10 B1813,2013-04-03 04:36:00,
2013-04-02 20:41:00,25.6,13.7,30.64,NNE,29,11.0,12.0,60,0.00,,,0.00,LWC V2.10 B1813,2013-04-03 04:41:00,
2013-04-02 20:46:00,25.4,13.5,30.64,NNE,22,6.0,7.0,60,0.00,,,0.00,LWC V2.10 B1813,2013-04-03 04:46:00,
2013-04-02 20:52:00,25.3,13.4,30.64,NNE,12,6.0,6.0,60,0.00,,,0.00,LWC V2.10 B1813,2013-04-03 04:52:00,
2013-04-02 20:57:00,25.2,13.7,30.64,NNE,32,9.0,9.0,61,0.00,,,0.00,LWC V2.10 B1813,2013-04-03 04:57:00,
2013-04-02 21:02:00,25.1,13.2,30.64,North,5,8.0,9.0,60,0.00,,,0.00,LWC V2.10 B1813,2013-04-03 05:02:00,
2013-04-02 21:07:00,25.1,13.6,30.65,NNW,338,6.0,12.0,61,0.00,,,0.00,LWC V2.10 B1813,2013-04-03 05:07:00,
2013-04-02 21:12:00,25.0,13.1,30.65,NNW,340,2.0,7.0,60,0.00,,,0.00,LWC V2.10 B1813,2013-04-03 05:12:00,
2013-04-02 21:17:00,25.0,13.1,30.65,North,0,2.0,9.0,60,0.00,,,0.00,LWC V2.10 B1813,2013-04-03 05:17:00,
2013-04-02 21:22:00,24.9,13.4,30.65,NNE,19,6.0,9.0,61,0.00,,,0.00,LWC V2.10 B1813,2013-04-03 05:22:00,
2013-04-02 21:27:00,24.8,12.9,30.65,North,355,3.0,8.0,60,0.00,,,0.00,LWC V2.10 B1813,2013-04-03 05:27:00,
2013-04-02 21:32:00,24.8,12.9,30.66,NNE,21,2.0,8.0,60,0.00,,,0.00,LWC V2.10 B1813,2013-04-03 05:32:00,
2013-04-02 21:37:00,24.8,12.9,30.66,NNW,330,3.0,9.0,60,0.00,,,0.00,LWC V2.10 B1813,2013-04-03 05:37:00,
2013-04-02 21:41:00,24.7,13.2,30.66,NE,40,3.0,9.0,61,0.00,,,0.00,LWC V2.10 B1813,2013-04-03 05:41:00,
2013-04-02 21:46:00,24.5,12.6,30.66,NNE,19,3.0,6.0,60,0.00,,,0.00,LWC V2.10 B1813,2013-04-03 05:46:00,
2013-04-02 21:52:00,24.3,12.4,30.66,NNW,329,3.0,11.0,60,0.00,,,0.00,LWC V2.10 B1813,2013-04-03 05:52:00,
2013-04-02 21:57:00,24.2,12.7,30.66,NNE,24,3.0,7.0,61,0.00,,,0.00,LWC V2.10 B1813,2013-04-03 05:57:00,
2013-04-02 22:01:00,24.2,12.7,30.66,North,0,6.0,7.0,61,0.00,,,0.00,LWC V2.10 B1813,2013-04-03 06:01:00,
2013-04-02 22:06:00,24.1,12.6,30.66,North,0,0.0,3.0,61,0.00,,,0.00,LWC V2.10 B1813,2013-04-03 06:06:00,
2013-04-02 22:11:00,24.0,12.5,30.66,NNW,338,1.0,7.0,61,0.00,,,0.00,LWC V2.10 B1813,2013-04-03 06:11:00,
2013-04-02 22:16:00,23.9,12.4,30.66,North,0,2.0,10.0,61,0.00,,,0.00,LWC V2.10 B1813,2013-04-03 06:16:00,
2013-04-02 22:21:00,23.9,12.1,30.67,NNE,17,5.0,7.0,60,0.00,,,0.00,LWC V2.10 B1813,2013-04-03 06:21:00,
2013-04-02 22:26:00,23.8,12.0,30.66,NNE,17,6.0,8.0,60,0.00,,,0.00,LWC V2.10 B1813,2013-04-03 06:26:00,
2013-04-02 22:31:00,23.7,12.2,30.67,NNE,18,4.0,11.0,61,0.00,,,0.00,LWC V2.10 B1813,2013-04-03 06:31:00,
2013-04-02 22:36:00,23.6,12.2,30.67,NNW,341,4.0,5.0,61,0.00,,,0.00,LWC V2.10 B1813,2013-04-03 06:36:00,
2013-04-02 22:41:00,23.5,12.1,30.67,NNE,14,5.0,5.0,61,0.00,,,0.00,LWC V2.10 B1813,2013-04-03 06:41:00,
2013-04-02 22:47:00,23.4,12.0,30.67,North,0,3.0,8.0,61,0.00,,,0.00,LWC V2.10 B1813,2013-04-03 06:47:00,
2013-04-02 22:51:00,23.3,12.2,30.67,NE,36,6.0,8.0,62,0.00,,,0.00,LWC V2.10 B1813,2013-04-03 06:51:00,
2013-04-02 22:57:00,23.1,12.8,30.67,NNW,338,4.0,7.0,64,0.00,,,0.00,LWC V2.10 B1813,2013-04-03 06:57:00,
2013-04-02 23:02:00,22.9,12.2,30.67,NNE,14,5.0,10.0,63,0.00,,,0.00,LWC V2.10 B1813,2013-04-03 07:02:00,
2013-04-02 23:07:00,22.8,11.4,30.67,North,10,9.0,9.0,61,0.00,,,0.00,LWC V2.10 B1813,2013-04-03 07:07:00,
2013-04-02 23:12:00,22.6,11.9,30.68,North,355,4.0,9.0,63,0.00,,,0.00,LWC V2.10 B1813,2013-04-03 07:12:00,
2013-04-02 23:17:00,22.5,11.5,30.68,North,9,1.0,5.0,62,0.00,,,0.00,LWC V2.10 B1813,2013-04-03 07:17:00,
2013-04-02 23:22:00,22.4,11.4,30.68,NNW,338,2.0,8.0,62,0.00,,,0.00,LWC V2.10 B1813,2013-04-03 07:22:00,
2013-04-02 23:27:00,22.2,11.2,30.68,NW,321,2.0,4.0,62,0.00,,,0.00,LWC V2.10 B1813,2013-04-03 07:27:00,
2013-04-02 23:32:00,22.0,11.4,30.68,NNW,338,2.0,3.0,63,0.00,,,0.00,LWC V2.10 B1813,2013-04-03 07:32:00,
2013-04-02 23:37:00,21.7,11.4,30.68,NW,321,2.0,4.0,64,0.00,,,0.00,LWC V2.10 B1813,2013-04-03 07:37:00,
2013-04-02 23:42:00,21.4,10.8,30.69,NW,321,0.0,2.0,63,0.00,,,0.00,LWC V2.10 B1813,2013-04-03 07:42:00,
2013-04-02 23:47:00,21.1,11.2,30.69,NW,320,1.0,1.0,65,0.00,,,0.00,LWC V2.10 B1813,2013-04-03 07:47:00,
2013-04-02 23:52:00,20.8,10.9,30.69,NNE,20,2.0,5.0,65,0.00,,,0.00,LWC V2.10 B1813,2013-04-03 07:52:00,
2013-04-02 23:57:00,20.7,10.8,30.69,North,0,0.0,8.0,65,0.00,,,0.00,LWC V2.10 B1813,2013-04-03 07:57:00,